Precipitable_Water
1.95 2.09 2.21 2.29 2.20 2.28 2.23 2.31 2.22 2.19 2.00 1.91 1.85 1.81 1.79 1.82 1.77 1.75 1.75 1.72 1.69 1.76 1.75 1.72 1.69 1.69 1.74 1.86 1.89 1.89 1.86 1.88 1.93 2.03 2.05 2.03 2.00 1.95 1.95 1.92 1.90 1.88 1.89
1.97 2.09 2.16 2.22 2.21 2.28 2.26 2.27 2.26 2.17 2.11 1.99 1.90 1.87 1.79 1.82 1.86 1.79 1.82 1.86 1.75 1.73 1.76 1.78 1.77 1.72 1.82 1.88 1.86 1.88 1.92 1.96 1.99 1.98 1.98 1.99 1.93 1.90 1.89 1.89 1.88 1.87 1.86
1.87 1.99 2.04 2.07 2.12 2.22 2.25 2.21 2.28 2.24 2.13 2.02 1.92 1.91 1.91 1.93 1.95 1.93 1.95 1.95 1.98 1.87 1.85 1.83 1.82 1.74 1.74 1.80 1.78 1.72 1.73 1.71 1.73 1.76 1.81 1.85 1.84 1.82 1.81 1.80 1.78 1.78 1.77
1.84 1.85 1.86 1.94 2.15 2.09 2.14 2.07 2.08 2.22 2.13 2.09 1.95 2.00 2.03 2.06 2.01 2.02 2.03 2.03 2.01 2.03 2.00 1.95 1.91 1.82 1.82 1.81 1.80 1.80 1.75 1.73 1.72 1.68 1.64 1.63 1.63 1.65 1.64 1.64 1.67 1.71 1.74
1.85 1.78 1.76 1.84 1.94 2.01 2.09 1.96 1.96 2.04 2.09 2.11 2.09 2.05 2.01 2.03 2.06 2.05 2.09 2.06 2.06 2.01 2.08 2.11 1.98 1.99 1.95 1.95 1.92 1.87 1.85 1.81 1.75 1.67 1.63 1.59 1.54 1.50 1.52 1.54 1.59 1.65 1.72
1.66 1.72 1.68 1.69 1.74 1.79 1.96 1.98 1.89 1.84 2.03 1.99 1.98 2.02 2.07 2.08 2.10 2.06 2.03 2.03 2.04 2.01 2.04 2.08 2.11 1.99 1.99 2.01 2.04 2.04 2.03 2.03 1.98 1.89 1.80 1.67 1.56 1.46 1.42 1.42 1.46 1.54 1.58
1.48 1.59 1.60 1.57 1.59 1.59 1.81 1.96 1.81 1.76 1.84 1.99 1.92 1.87 1.92 2.02 2.00 1.99 1.97 1.96 1.96 1.95 2.03 2.11 2.11 2.13 2.12 2.07 2.03 2.06 2.05 2.08 2.09 2.04 1.98 1.92 1.87 1.76 1.62 1.52 1.44 1.41 1.43
1.71 1.50 1.34 1.47 1.46 1.49 1.65 1.81 1.75 1.64 1.66 1.75 1.78 1.77 1.62 1.73 1.82 1.91 1.88 1.86 1.87 1.94 1.88 1.95 2.04 2.03 2.06 2.11 2.07 2.04 2.06 2.06 2.06 2.06 2.04 2.00 1.97 1.95 1.93 1.82 1.70 1.60 1.51
1.99 1.91 1.83 1.61 1.27 1.37 1.45 1.61 1.73 1.65 1.47 1.45 1.65 1.63 1.47 1.54 1.62 1.74 1.78 1.80 1.80 1.86 1.88 1.91 1.95 1.95 1.98 1.97 1.96 1.91 1.95 1.99 2.02 2.02 2.02 2.03 1.95 1.93 1.92 1.96 1.94 1.86 1.77
2.11 2.10 2.03 1.97 1.81 1.36 1.39 1.49 1.68 1.71 1.59 1.46 1.45 1.61 1.67 1.74 1.57 1.47 1.67 1.78 1.87 1.85 1.84 1.87 1.84 1.89 1.93 1.93 1.93 1.91 1.76 1.88 1.97 2.00 2.00 2.00 2.01 1.97 1.95 1.96 1.97 2.01 1.92
2.12 2.11 2.10 2.09 2.05 1.94 1.48 1.46 1.62 1.72 1.65 1.50 1.49 1.48 1.59 1.55 1.57 1.49 1.59 1.58 1.76 1.80 1.83 1.83 1.77 1.79 1.83 1.89 1.99 2.02 1.81 1.63 1.81 1.95 1.96 1.90 1.89 1.91 1.93 1.97 1.95 1.97 2.02
2.00 2.08 2.10 2.11 2.09 2.04 1.99 1.78 1.57 1.67 1.65 1.55 1.40 1.58 1.48 1.41 1.50 1.42 1.41 1.48 1.52 1.72 1.79 1.84 1.76 1.75 1.82 1.89 1.91 1.93 1.93 1.95 1.99 2.09 2.01 1.84 1.82 1.86 1.89 1.92 1.95 1.91 1.93
1.93 2.02 2.06 2.06 2.04 2.09 2.09 2.10 2.03 1.86 1.79 1.76 1.53 1.42 1.51 1.36 1.43 1.53 1.52 1.40 1.40 1.70 1.63 1.76 1.83 1.86 1.81 1.81 1.86 1.88 1.91 2.04 2.14 2.10 2.02 2.07 1.99 1.91 1.89 1.92 1.98 2.03 2.00
1.98 2.04 2.02 2.09 2.09 2.08 2.11 2.13 2.14 2.12 2.14 1.90 1.83 1.70 1.47 1.36 1.29 1.50 1.52 1.49 1.39 1.36 1.48 1.47 1.79 1.79 1.84 1.86 1.94 1.88 1.98 2.08 2.18 2.09 1.97 1.93 2.01 2.03 2.05 1.97 1.91 1.88 1.96
1.98 2.05 2.07 2.08 2.07 2.06 2.08 2.06 2.06 2.07 2.09 2.13 2.06 1.90 1.79 1.58 1.41 1.40 1.56 1.59 1.36 1.14 1.21 1.66 1.48 1.88 1.81 1.86 1.87 1.85 1.95 1.97 1.94 1.89 1.86 1.76 1.79 1.91 1.93 1.97 1.96 1.96 1.88
1.97 1.99 2.04 2.07 2.09 2.07 2.04 2.04 2.02 2.06 2.10 2.10 2.08 1.94 1.93 1.83 1.65 1.45 1.47 1.52 1.48 1.35 1.16 1.45 1.69 1.87 1.94 1.89 1.92 1.87 1.89 1.86 1.77 1.72 1.68 1.73 1.73 1.72 1.76 1.76 1.76 1.75 1.73
1.83 1.89 2.03 2.02 2.04 2.05 2.06 2.07 2.04 2.06 2.05 2.08 2.09 2.04 2.01 2.02 1.79 1.68 1.49 1.48 1.40 1.40 1.25 1.36 1.64 1.86 1.91 1.89 1.91 1.91 1.86 1.76 1.67 1.76 1.76 1.75 1.75 1.72 1.69 1.68 1.67 1.64 1.63
1.77 1.80 1.87 1.93 1.97 2.04 2.08 2.07 2.03 2.02 2.01 2.01 2.06 2.09 2.05 2.13 1.99 1.89 1.69 1.60 1.51 1.59 1.45 1.33 1.56 1.71 1.87 1.94 1.94 1.79 1.73 1.70 1.77 1.93 1.79 1.69 1.79 1.72 1.63 1.65 1.65 1.65 1.65
1.63 1.61 1.62 1.63 1.70 1.74 1.75 1.84 1.86 1.88 1.96 2.04 2.08 2.02 2.01 2.07 2.06 1.96 1.88 1.74 1.79 1.72 1.55 1.61 1.57 1.81 1.85 1.97 1.92 1.89 1.76 1.80 1.87 1.92 1.90 1.84 1.77 1.72 1.66 1.61 1.52 1.39 1.41
1.83 1.65 1.61 1.57 1.58 1.63 1.65 1.64 1.68 1.69 1.82 1.92 1.92 1.98 1.99 2.04 2.04 2.06 1.93 1.84 1.87 1.95 1.67 1.65 1.64 1.76 1.89 1.98 1.98 1.75 1.67 1.83 1.81 2.01 1.92 1.90 1.80 1.73 1.64 1.53 1.40 1.35 1.42
1.68 1.72 1.67 1.70 1.78 1.74 1.68 1.56 1.51 1.52 1.66 1.79 1.85 1.93 1.95 2.02 2.00 2.04 1.99 1.88 1.87 1.94 1.76 1.62 1.61 1.70 1.83 1.82 1.72 1.81 1.71 1.72 1.82 1.94 1.82 1.83 1.84 1.80 1.75 1.63 1.51 1.40 1.32
1.62 1.60 1.69 1.72 1.66 1.86 1.93 1.75 1.60 1.45 1.50 1.60 1.70 1.83 1.94 1.94 1.90 1.88 1.96 1.92 1.87 1.87 1.83 1.59 1.61 1.62 1.78 1.95 1.89 1.80 1.68 1.67 1.61 2.01 1.79 1.69 1.83 1.79 1.75 1.64 1.46 1.36 1.15
1.56 1.57 1.58 1.62 1.70 1.70 1.88 1.97 1.85 1.63 1.43 1.50 1.65 1.73 1.86 1.92 1.93 1.93 1.93 1.95 1.91 1.86 1.84 1.73 1.58 1.69 1.73 1.91 1.90 1.79 1.69 1.69 1.67 1.95 1.73 1.45 1.71 1.64 1.74 1.59 1.42 1.27 1.15
1.48 1.58 1.61 1.62 1.65 1.68 1.69 1.77 1.98 1.88 1.66 1.51 1.55 1.68 1.72 1.78 1.84 1.82 1.86 1.86 1.83 1.84 1.82 1.79 1.64 1.61 1.73 1.81 1.78 1.71 1.71 1.76 1.83 1.88 1.68 1.27 1.52 1.48 1.61 1.53 1.42 1.29 1.13
1.49 1.52 1.64 1.71 1.70 1.67 1.70 1.72 1.75 1.97 1.76 1.64 1.62 1.61 1.68 1.74 1.80 1.84 1.79 1.70 1.76 1.83 1.98 1.91 1.87 1.83 1.74 1.65 1.67 1.60 1.51 1.57 1.46 1.61 1.65 1.43 1.47 1.44 1.51 1.41 1.44 1.35 1.19
1.49 1.57 1.56 1.68 1.73 1.68 1.78 1.75 1.72 1.80 1.78 1.76 1.76 1.69 1.60 1.63 1.74 1.73 1.71 1.67 1.61 1.70 1.82 1.85 1.88 1.87 1.80 1.79 1.75 1.67 1.55 1.44 1.37 1.39 1.61 1.42 1.41 1.42 1.24 1.39 1.47 1.47 1.37
Wind_Speed
5 5 4 4 3 4 5 5 6 4 5 4 3 3 4 4 3 3 3 3 3 3 4 4 4 4 4 5 5 5 5 6 7 8 8 8 8 9 9 9 10 10 10
5 4 4 5 5 5 6 6 6 5 4 3 3 3 4 4 3 3 3 3 3 3 3 3 4 4 4 4 4 4 4 5 5 6 6 6 7 8 8 9 9 10 10
4 3 3 4 5 5 5 6 6 6 4 4 4 4 4 4 3 3 3 2 2 3 3 3 4 4 4 4 4 4 4 4 4 4 5 5 6 6 7 7 7 8 8
5 3 2 2 2 3 3 4 5 5 4 3 4 3 3 3 3 3 3 2 2 2 2 3 3 3 3 4 4 4 4 4 4 4 4 5 5 5 6 6 6 6 7
7 6 4 2 1 1 2 3 4 4 3 2 2 2 3 2 3 3 2 2 2 1 1 2 3 3 3 3 3 3 4 4 4 4 4 4 4 5 5 5 5 6 6
9 8 6 5 4 2 1 1 2 3 4 3 2 2 2 3 3 3 3 2 1 1 2 3 2 3 4 4 4 4 5 5 4 4 4 4 4 4 4 4 5 5 6
11 10 9 8 7 6 4 3 2 1 1 1 2 1 2 2 3 3 4 3 2 2 2 3 3 2 3 4 5 5 5 5 6 5 5 5 5 5 5 4 4 5 5
12 12 11 10 9 9 8 6 4 3 2 1 2 2 1 2 4 4 4 5 4 3 3 3 4 4 3 4 4 5 6 6 6 6 6 6 6 6 6 6 6 6 6
13 14 14 13 11 11 10 9 8 6 5 4 3 2 2 2 2 3 5 5 4 4 4 5 5 5 5 5 4 5 6 7 7 7 7 7 7 7 6 6 7 7 7
15 15 14 15 14 13 13 12 10 9 9 8 7 6 5 4 3 3 5 5 5 5 6 6 6 6 6 6 6 6 6 7 7 7 8 8 8 8 8 8 8 8 8
16 16 16 15 15 15 15 15 13 12 11 12 10 10 8 8 7 7 5 6 7 6 6 7 8 7 7 7 7 7 6 7 7 8 9 9 9 9 9 10 10 10 10
18 18 18 17 17 17 17 17 17 16 15 13 13 12 12 11 10 10 10 9 8 8 7 7 8 9 9 9 9 8 8 8 7 8 8 9 9 10 11 11 11 11 12
18 18 19 19 18 18 19 18 18 18 18 16 15 16 16 15 14 13 12 11 11 10 10 10 9 9 10 10 11 10 9 10 9 8 9 10 11 11 11 12 12 13 13
20 20 20 21 21 21 21 21 20 20 20 20 20 18 17 17 17 16 15 13 12 12 11 12 11 11 11 10 9 10 10 10 10 10 10 11 12 13 13 12 13 14 15
23 23 22 23 23 23 23 23 22 22 21 21 22 21 21 19 18 18 17 17 15 15 13 10 11 10 11 10 10 10 10 10 11 11 12 12 12 13 14 14 14 15 16
24 25 24 24 24 25 25 25 24 24 24 23 22 23 23 21 20 20 19 18 18 17 16 15 12 12 11 11 11 12 12 12 13 12 12 12 12 12 13 15 16 17 18
24 25 25 25 24 25 25 25 26 25 26 25 25 24 24 25 24 22 21 20 19 19 18 17 17 15 14 14 14 14 14 14 13 12 12 12 12 13 14 16 17 19 20
25 25 26 26 26 25 25 26 27 26 26 26 26 26 25 28 29 26 24 22 21 19 19 18 18 17 16 16 16 15 15 14 13 13 13 14 15 16 17 19 20 22 24
25 26 26 26 26 26 26 26 26 27 27 27 27 27 28 28 31 29 27 25 23 22 21 20 19 18 17 17 16 16 16 16 16 15 16 16 17 17 17 20 23 26 27
26 26 26 26 26 26 26 25 25 26 27 27 27 26 26 27 31 29 26 25 24 22 22 21 21 20 19 19 18 17 17 17 16 16 16 17 17 18 20 22 24 24 24
28 28 27 27 26 26 25 26 26 25 25 26 26 25 22 19 24 26 25 25 24 23 22 22 22 21 20 19 18 18 18 18 18 18 17 17 18 19 21 22 23 23 23
29 30 30 29 28 27 27 26 26 25 25 25 25 24 23 22 24 26 26 26 24 24 23 22 22 21 21 20 20 20 20 19 18 17 18 19 19 21 22 24 24 24 25
32 32 32 32 31 30 28 29 28 27 26 25 25 25 24 24 26 27 28 27 27 26 26 25 24 23 22 21 20 21 21 21 21 20 19 21 21 22 23 23 23 24 24
34 34 35 35 34 33 31 29 30 30 29 27 26 26 26 26 25 26 26 27 28 28 27 27 27 26 25 23 23 23 22 23 23 23 22 22 22 23 24 24 24 23 22
33 34 34 36 36 36 35 33 31 30 30 30 28 27 28 28 27 27 26 27 27 27 26 27 26 26 25 25 25 24 24 24 25 24 23 24 24 24 25 25 24 23 22
32 33 34 35 36 37 37 36 34 33 32 31 31 29 29 30 28 28 29 28 28 28 28 26 27 27 28 27 27 27 26 26 26 26 26 24 25 25 25 23 24 23 23
Wind_Direction
124 116 83 84 65 52 56 61 60 98 111 119 118 121 143 143 140 135 125 139 154 162 173 190 207 218 223 229 240 244 249 251 254 256 252 249 248 252 255 253 255 256 257
137 116 88 69 80 78 60 53 61 80 97 114 120 135 145 144 149 155 146 141 161 172 186 201 214 218 220 227 237 244 248 254 257 259 257 255 257 256 255 254 256 257 257
158 140 102 82 75 68 57 54 56 64 95 105 111 121 134 144 142 155 163 157 159 192 209 219 220 216 221 227 233 239 245 254 262 262 261 261 260 259 257 256 255 255 255
191 184 158 114 79 50 61 64 55 58 78 103 129 129 137 138 142 147 151 151 152 166 189 208 211 217 226 233 239 243 247 255 262 265 265 265 264 262 260 258 255 254 254
213 216 215 216 209 54 69 56 44 43 66 91 138 176 170 165 174 165 157 165 161 183 196 202 212 221 231 237 242 247 252 255 260 263 264 266 267 266 263 260 258 255 254
223 225 230 234 241 243 245 58 50 54 63 72 64 137 175 188 188 200 189 188 198 215 228 222 220 238 245 250 253 256 257 259 259 261 260 261 263 265 266 265 263 259 257
231 229 232 239 243 243 245 255 274 330 35 30 32 172 185 216 207 211 208 209 245 252 244 226 229 245 251 258 258 259 259 259 258 258 258 258 260 262 263 266 267 266 263
231 231 235 242 247 244 246 250 253 268 273 269 298 256 234 225 219 223 220 231 245 265 253 244 243 251 262 271 267 261 258 259 259 258 258 258 258 261 263 264 265 266 264
234 236 241 243 246 243 245 247 251 254 263 262 265 265 270 233 221 226 228 234 245 259 259 254 254 259 263 273 276 271 262 261 260 261 259 258 258 260 262 264 265 265 264
240 239 241 242 244 244 243 246 248 252 252 256 258 252 257 262 261 242 237 242 249 258 268 262 262 264 259 264 268 276 271 265 266 265 261 258 256 259 260 263 266 266 265
243 240 242 243 246 245 245 245 247 252 254 252 252 253 253 255 253 258 259 248 249 264 281 259 260 263 260 260 263 270 273 268 275 269 262 260 261 262 265 266 267 266 266
243 242 244 246 248 248 245 247 247 250 251 250 250 251 253 255 256 255 255 259 260 264 274 273 264 264 263 262 261 264 268 267 271 284 265 261 264 268 268 268 269 269 269
245 245 245 247 248 247 247 248 250 249 248 250 250 252 254 256 256 258 257 257 259 263 270 269 269 268 268 269 261 260 263 265 269 275 273 269 269 271 273 274 273 271 271
248 249 250 250 251 251 249 250 250 250 251 249 250 252 254 255 255 253 253 256 263 262 265 267 267 268 269 267 260 260 265 267 265 271 281 275 275 269 273 278 280 277 275
251 252 254 256 255 253 251 250 250 251 251 252 251 252 253 254 252 251 251 253 256 261 264 264 268 265 267 266 260 262 265 265 268 274 278 282 277 272 274 277 282 282 280
254 254 255 257 255 253 252 251 250 251 252 255 254 253 251 251 250 251 250 252 254 258 260 260 267 265 267 268 264 269 269 269 271 273 277 280 280 278 279 281 284 284 284
257 257 257 257 255 253 252 252 252 253 253 254 253 255 253 251 250 249 249 250 253 255 257 258 260 264 266 267 267 270 271 270 271 269 277 280 281 283 285 287 289 289 287
259 258 257 257 256 254 253 252 252 253 252 253 252 255 255 257 248 246 247 249 252 255 257 259 261 263 263 265 267 269 269 268 269 271 276 281 284 286 288 291 293 292 290
259 258 257 256 255 254 254 253 254 253 253 255 254 257 261 263 245 242 243 248 250 252 254 257 260 261 263 264 265 266 266 268 269 271 278 281 284 287 290 296 298 297 294
259 257 256 256 255 254 253 253 254 254 254 254 256 260 267 263 238 234 240 245 249 253 253 255 257 260 262 262 262 265 266 266 269 273 281 281 284 287 293 299 303 302 299
258 257 256 256 255 254 254 252 253 254 253 254 255 257 260 254 231 235 240 244 247 249 252 253 257 258 260 259 259 262 263 266 270 276 280 283 286 290 297 300 306 307 304
259 255 254 255 254 253 254 253 251 252 253 254 253 252 251 248 239 239 244 244 247 248 250 252 255 256 259 259 259 263 265 267 271 276 278 284 287 290 296 301 303 305 304
258 256 253 253 252 254 253 252 251 250 252 252 252 250 249 248 246 246 245 246 247 249 250 253 253 256 259 258 262 264 265 267 267 273 279 284 288 291 294 299 303 305 305
258 256 255 253 253 252 252 251 251 249 249 250 251 250 247 247 246 246 245 245 247 248 250 250 252 255 257 259 262 265 267 267 269 273 275 282 288 291 295 298 301 306 303
260 257 256 252 253 252 250 249 250 249 248 248 249 250 248 247 246 244 246 246 247 249 249 250 253 254 257 258 261 263 264 267 270 274 275 279 287 289 294 295 298 302 301
262 256 255 254 252 253 249 246 247 247 248 248 247 249 248 247 246 244 245 247 248 249 250 252 253 255 258 259 259 260 263 266 270 273 274 275 284 290 294 291 295 298 301